"Period start","avg(HW err(1)/warn(2) (#))","avg(Visibility (m))","avg(Weather code (#))","avg(Precip intensity (mm/h))","min(HW err(1)/warn(2) (#))","max(HW err(1)/warn(2) (#))","std(HW err(1)/warn(2) (#))","med(HW err(1)/warn(2) (#))","min(Visibility (m))","max(Visibility (m))","std(Visibility (m))","med(Visibility (m))","min(Weather code (#))","max(Weather code (#))","std(Weather code (#))","med(Weather code (#))","min(Precip intensity (mm/h))","max(Precip intensity (mm/h))","std(Precip intensity (mm/h))","med(Precip intensity (mm/h))"
2014-09-20 00:00:00,2,43874,0,0.00,2,2,0,2,39107,50000,4176,43360,0,0,0,0,0.00,0.00,0.00,0.00
2014-09-20 00:10:00,2,37524,0,0.00,2,2,0,2,28305,42667,4080,37713,0,0,0,0,0.00,0.00,0.00,0.00
2014-09-20 00:20:00,2,40181,0,0.00,2,2,0,2,36181,45595,3239,39548,0,0,0,0,0.00,0.00,0.00,0.00
2014-09-20 00:30:00,2,40470,0,0.00,2,2,0,2,35065,45426,3224,40974,0,0,0,0,0.00,0.00,0.00,0.00
2014-09-20 00:40:00,2,40752,0,0.00,2,2,0,2,32359,47855,3853,41509,0,0,0,0,0.00,0.00,0.00,0.00
2014-09-20 00:50:00,2,45156,0,0.00,2,2,0,2,40429,49865,3646,45349,0,0,0,0,0.00,0.00,0.00,0.00
2014-09-20 01:00:00,2,45790,0,0.00,2,2,0,2,41201,48486,2071,46102,0,0,0,0,0.00,0.00,0.00,0.00
2014-09-20 01:10:00,2,40333,0,0.00,2,2,0,2,30467,50000,6000,41783,0,0,0,0,0.00,0.00,0.00,0.00
2014-09-20 01:20:00,2,41484,0,0.00,2,2,0,2,31481,49446,5053,40770,0,0,0,0,0.00,0.00,0.00,0.00
2014-09-20 01:30:00,2,41990,0,0.00,2,2,0,2,34945,50000,5030,41792,0,0,0,0,0.00,0.00,0.00,0.00
2014-09-20 01:40:00,2,42152,0,0.00,2,2,0,2,35493,48696,4596,41626,0,0,0,0,0.00,0.00,0.00,0.00
2014-09-20 01:50:00,2,41982,0,0.00,2,2,0,2,37981,47487,3081,41147,0,0,0,0,0.00,0.00,0.00,0.00
2014-09-20 02:00:00,2,47550,0,0.00,2,2,0,2,40037,50000,3304,49643,0,0,0,0,0.00,0.00,0.00,0.00
2014-09-20 02:10:00,2,49393,0,0.00,2,2,0,2,47960,50000,802,49990,0,0,0,0,0.00,0.00,0.00,0.00
2014-09-20 02:20:00,2,48154,0,0.00,2,2,0,2,45049,50000,1946,49254,0,0,0,0,0.00,0.00,0.00,0.00
2014-09-20 02:30:00,2,48380,0,0.00,2,2,0,2,46233,50000,1214,48464,0,0,0,0,0.00,0.00,0.00,0.00
2014-09-20 02:40:00,2,44874,0,0.00,2,2,0,2,41748,48057,1930,45142,0,0,0,0,0.00,0.00,0.00,0.00
2014-09-20 02:50:00,2,47141,0,0.00,2,2,0,2,40522,50000,3381,48790,0,0,0,0,0.00,0.00,0.00,0.00
2014-09-20 03:00:00,2,39426,0,0.00,2,2,0,2,34144,43063,2342,39742,0,0,0,0,0.00,0.00,0.00,0.00
2014-09-20 03:10:00,2,37966,14,0.00,2,2,0,2,27969,43076,4783,38916,0,61,22,0,0.00,0.00,0.00,0.00
2014-09-20 03:20:00,2,27642,16,0.00,2,2,0,2,20691,37116,5243,26870,0,41,20,0,0.00,0.00,0.00,0.00
2014-09-20 03:30:00,2,29834,41,0.00,2,2,0,2,22533,38808,4586,30383,41,41,0,41,0.00,0.00,0.00,0.00
2014-09-20 03:40:00,2,31823,16,0.02,2,2,0,2,21864,42976,8356,28430,0,41,20,0,0.00,0.05,0.02,0.00
2014-09-20 03:50:00,2,27880,0,0.00,2,2,0,2,21867,34129,4343,28528,0,0,0,0,0.00,0.00,0.00,0.00
2014-09-20 04:00:00,2,27392,20,0.01,2,2,0,2,21892,35164,4430,26167,0,41,20,20,0.00,0.05,0.02,0.00
2014-09-20 04:10:00,2,24646,59,0.21,2,2,0,2,16774,31770,4448,24708,41,61,6,61,0.00,0.60,0.20,0.17
2014-09-20 04:20:00,2,18432,59,1.41,2,2,0,2,9963,27096,5814,19880,52,61,4,61,0.25,2.45,0.59,1.40
2014-09-20 04:30:00,2,19634,61,1.00,2,2,0,2,14442,22049,2201,20025,61,61,0,61,0.65,1.85,0.36,0.88
2014-09-20 04:40:00,2,12170,62,1.46,2,2,0,2,9630,15879,2406,11208,61,67,2,61,0.40,3.00,0.75,1.50
2014-09-20 04:50:00,2,13454,63,1.37,2,2,0,2,11063,16877,1559,13553,61,67,3,61,0.65,2.20,0.39,1.40
2014-09-20 05:00:00,2,14766,61,1.68,2,2,0,2,12215,16997,1400,14827,61,61,0,61,0.65,3.20,0.84,1.30
2014-09-20 05:10:00,2,9396,64,1.21,2,2,0,2,6335,14806,2128,9168,61,67,3,64,0.30,3.30,0.82,1.12
2014-09-20 05:20:00,2,5767,69,2.22,2,2,0,2,4450,6846,691,5664,67,71,2,71,0.40,5.30,1.49,1.85
2014-09-20 05:30:00,2,4151,71,1.22,2,2,0,2,2386,5623,921,4147,71,71,0,71,0.55,1.65,0.29,1.20
2014-09-20 05:40:00,2,3157,71,1.39,2,2,0,2,2072,4274,626,3178,71,71,0,71,0.55,2.05,0.46,1.45
2014-09-20 05:50:00,2,4532,71,0.90,2,2,0,2,3350,5635,665,4444,71,71,0,71,0.35,1.50,0.36,0.90
2014-09-20 06:00:00,2,4813,71,0.82,2,2,0,2,3272,7494,1283,4414,71,71,0,71,0.30,1.55,0.40,0.77
2014-09-20 06:10:00,2,5074,71,0.62,2,2,0,2,3308,6561,1030,5526,71,71,0,71,0.25,1.00,0.28,0.62
2014-09-20 06:20:00,2,4679,71,0.92,2,2,0,2,2852,6775,1037,4639,71,71,0,71,0.40,1.60,0.39,0.88
2014-09-20 06:30:00,2,5812,71,0.76,2,2,0,2,3839,8670,1250,5800,71,71,0,71,0.30,2.85,0.71,0.57
2014-09-20 06:40:00,2,7403,71,1.17,2,2,0,2,5267,9436,1167,7136,71,71,0,71,0.50,2.15,0.42,1.15
2014-09-20 06:50:00,2,7816,70,1.20,2,2,0,2,6765,9891,1031,7399,67,71,2,71,0.40,2.10,0.66,1.08
2014-09-20 07:00:00,2,8640,67,1.84,2,2,0,2,7057,10027,879,8708,67,71,1,67,0.55,5.05,1.29,1.20
2014-09-20 07:10:00,2,8050,66,2.18,2,2,0,2,7154,8947,600,7945,61,67,2,67,0.80,5.40,1.31,1.68
2014-09-20 07:20:00,2,9840,61,3.13,2,2,0,2,7692,12652,1382,10136,61,61,0,61,0.95,6.75,1.63,2.77
2014-09-20 07:30:00,2,10043,61,3.15,2,2,0,2,8529,11427,890,10304,61,61,0,61,1.65,4.30,0.95,3.12
2014-09-20 07:40:00,2,7680,63,4.39,2,2,0,2,6116,10556,1163,7546,61,67,3,61,1.90,8.20,1.82,3.92
2014-09-20 07:50:00,2,8090,67,2.29,2,2,0,2,7045,9196,656,7972,67,67,0,67,1.30,4.35,0.79,2.25
2014-09-20 08:00:00,2,8152,67,2.88,2,2,0,2,7189,10200,836,7944,67,67,0,67,1.55,4.45,1.04,2.65
2014-09-20 08:10:00,2,8643,61,4.73,2,2,0,2,7254,10139,889,8481,61,61,0,61,2.80,7.70,1.50,5.07
2014-09-20 08:20:00,2,10572,61,3.00,2,2,0,2,8873,12065,1020,10512,61,61,0,61,1.20,7.15,1.62,2.70
2014-09-20 08:30:00,2,12344,61,2.67,2,2,0,2,9371,14562,1495,12144,61,61,0,61,1.25,8.30,1.94,2.17
2014-09-20 08:40:00,2,11952,61,2.38,2,2,0,2,10317,13919,1033,12258,61,61,0,61,1.20,4.90,1.20,1.82
2014-09-20 08:50:00,2,13804,61,1.31,2,2,0,2,11829,16098,1046,13746,61,61,0,61,0.90,2.45,0.42,1.20
2014-09-20 09:00:00,2,11915,61,1.16,2,2,0,2,9933,15670,1642,11464,61,61,0,61,0.40,1.70,0.38,1.25
2014-09-20 09:10:00,2,11174,61,2.04,2,2,0,2,8962,13102,1201,10952,61,61,0,61,1.10,3.70,0.84,1.88
2014-09-20 09:20:00,2,10950,61,2.26,2,2,0,2,9504,12149,876,10969,61,61,0,61,1.20,3.10,0.57,2.38
2014-09-20 09:30:00,2,11524,61,1.80,2,2,0,2,10043,12995,909,11488,61,61,0,61,0.85,2.40,0.49,1.95
2014-09-20 09:40:00,2,10948,59,1.54,2,2,0,2,10140,12184,752,10872,52,61,4,61,1.00,2.10,0.35,1.50
2014-09-20 09:50:00,2,10524,56,1.65,2,2,0,2,9419,11883,787,10543,52,61,4,56,1.05,2.40,0.46,1.68
2014-09-20 10:00:00,2,10528,53,1.40,2,2,0,2,9959,11215,384,10498,52,61,3,52,0.85,2.20,0.40,1.40
2014-09-20 10:10:00,2,10014,61,1.64,2,2,0,2,8561,10868,744,10128,61,61,0,61,1.10,2.45,0.44,1.45
2014-09-20 10:20:00,2,10469,61,1.69,2,2,0,2,9307,12357,951,10250,61,61,0,61,0.55,3.10,0.68,1.73
2014-09-20 10:30:00,2,11382,58,1.02,2,2,0,2,10428,12386,661,11414,52,61,4,61,0.55,2.25,0.46,0.97
2014-09-20 10:40:00,2,11456,55,0.69,2,2,0,2,10841,11885,311,11484,52,61,4,52,0.35,1.00,0.23,0.80
2014-09-20 10:50:00,2,11363,52,0.57,2,2,0,2,10298,12151,577,11542,51,52,0,52,0.40,0.95,0.17,0.50
2014-09-20 11:00:00,2,12251,51,0.42,2,2,0,2,11476,12902,418,12383,51,52,0,51,0.10,0.60,0.13,0.45
2014-09-20 11:10:00,2,12181,51,0.45,2,2,0,2,11576,12848,391,12136,51,52,0,51,0.15,0.85,0.22,0.38
2014-09-20 11:20:00,2,11392,51,0.54,2,2,0,2,10695,11842,363,11517,51,52,0,51,0.30,1.05,0.22,0.50
2014-09-20 11:30:00,2,11676,51,0.43,2,2,0,2,10398,12754,907,11870,51,52,0,51,0.10,0.80,0.19,0.45
2014-09-20 11:40:00,2,12112,51,0.32,2,2,0,2,11284,12858,456,12187,51,51,0,51,0.15,0.55,0.13,0.30
2014-09-20 11:50:00,2,12923,55,0.26,2,2,0,2,11589,14561,954,12726,51,61,5,51,0.05,0.55,0.13,0.25
2014-09-20 12:00:00,2,12974,48,0.15,2,2,0,2,11538,14618,867,12910,41,51,5,51,0.00,0.65,0.18,0.10
2014-09-20 12:10:00,2,12851,59,0.30,2,2,0,2,11429,14173,786,12970,51,61,4,61,0.15,0.50,0.12,0.30
2014-09-20 12:20:00,2,11767,60,0.72,2,2,0,2,10510,13050,841,11536,51,61,3,61,0.10,1.20,0.33,0.78
2014-09-20 12:30:00,2,11668,54,0.38,2,2,0,2,11116,12512,449,11650,51,61,5,51,0.15,0.60,0.17,0.40
2014-09-20 12:40:00,2,10622,54,1.13,2,2,0,2,9049,11855,710,10837,51,61,4,52,0.55,2.05,0.54,0.97
2014-09-20 12:50:00,2,8496,61,2.62,2,2,0,2,6967,9844,1040,9076,61,61,0,61,1.10,4.70,1.13,2.40
2014-09-20 13:00:00,2,7282,61,5.28,2,2,0,2,6281,8447,712,7098,61,61,0,61,3.75,8.10,1.44,4.95
2014-09-20 13:10:00,2,8666,61,2.65,2,2,0,2,7361,10030,744,8454,61,61,0,61,1.25,6.05,1.22,2.40
2014-09-20 13:20:00,2,7017,61,3.35,2,2,0,2,6184,8727,735,6912,61,61,0,61,1.25,5.15,1.15,3.35
2014-09-20 13:30:00,2,6787,61,3.40,2,2,0,2,5535,7891,773,7138,61,61,0,61,1.95,5.10,0.97,2.97
2014-09-20 13:40:00,2,6632,61,3.90,2,2,0,2,5422,7529,650,6628,61,61,0,61,1.70,6.70,1.24,3.77
2014-09-20 13:50:00,2,5136,61,8.24,2,2,0,2,4468,6269,558,4940,61,62,0,61,4.45,16.35,3.29,7.72
2014-09-20 14:00:00,2,4953,61,9.03,2,2,0,2,4317,5932,474,4830,61,62,0,61,4.30,14.25,3.08,8.97
2014-09-20 14:10:00,2,6939,61,5.82,2,2,0,2,4571,9396,1582,7152,61,62,0,61,2.80,10.85,2.40,6.07
2014-09-20 14:20:00,2,7190,61,6.21,2,2,0,2,6424,8058,465,7078,61,61,0,61,3.15,9.15,1.47,6.38
2014-09-20 14:30:00,2,7788,61,6.48,2,2,0,2,7027,8851,597,7756,61,61,0,61,3.35,8.70,1.79,6.25
2014-09-20 14:40:00,2,7641,61,6.03,2,2,0,2,6785,9098,732,7442,61,62,0,61,4.05,10.60,2.24,5.28
2014-09-20 14:50:00,2,7475,61,6.05,2,2,0,2,6050,8706,672,7548,61,61,0,61,3.15,7.85,1.51,6.12
2014-09-20 15:00:00,2,7470,61,5.05,2,2,0,2,5830,9057,917,7758,61,61,0,61,3.05,8.25,1.52,4.40
2014-09-20 15:10:00,2,8034,61,3.90,2,2,0,2,7280,8701,440,7940,61,61,0,61,1.50,5.65,1.28,3.95
2014-09-20 15:20:00,2,7838,61,3.03,2,2,0,2,6924,8546,567,7840,61,61,0,61,1.65,4.05,0.78,3.35
2014-09-20 15:30:00,2,8388,61,3.59,2,2,0,2,6799,9330,851,8656,61,61,0,61,2.45,6.85,1.46,2.97
2014-09-20 15:40:00,2,8551,61,2.87,2,2,0,2,6904,9457,812,8754,61,61,0,61,1.35,5.50,1.32,2.20
2014-09-20 15:50:00,2,7952,61,3.31,2,2,0,2,6944,8924,655,7890,61,61,0,61,2.40,4.40,0.62,3.42
2014-09-20 16:00:00,2,8491,61,3.73,2,2,0,2,6984,9646,914,8822,61,61,0,61,1.45,6.50,1.54,3.45
2014-09-20 16:10:00,2,8609,61,3.40,2,2,0,2,7421,10168,800,8637,61,61,0,61,1.80,6.20,1.26,2.85
2014-09-20 16:20:00,2,8058,61,4.67,2,2,0,2,6518,10577,1321,7484,61,61,0,61,1.60,7.05,1.86,5.08
2014-09-20 16:30:00,2,9988,59,1.43,2,2,0,2,7680,11106,1079,10146,52,61,4,61,0.70,3.25,0.83,1.02
2014-09-20 16:40:00,2,9147,53,0.44,2,2,0,2,8586,9748,359,9210,52,61,3,52,0.20,1.05,0.24,0.35
2014-09-20 16:50:00,2,10768,54,0.69,2,2,0,2,9283,12211,1050,10840,51,61,4,52,0.20,1.45,0.35,0.55
2014-09-20 17:00:00,2,11508,59,2.13,2,2,0,2,10534,12639,553,11345,51,61,4,61,0.95,4.00,0.93,2.00
2014-09-20 17:10:00,2,12568,61,1.72,2,2,0,2,11389,14676,986,12402,61,61,0,61,0.65,3.25,0.73,1.50
2014-09-20 17:20:00,2,11849,61,2.30,2,2,0,2,10383,12784,748,11816,61,61,0,61,0.85,3.95,1.07,2.10
2014-09-20 17:30:00,2,12300,61,1.63,2,2,0,2,11379,12878,534,12498,61,61,0,61,0.95,2.35,0.46,1.45
2014-09-20 17:40:00,2,12298,61,1.76,2,2,0,2,11431,12833,506,12484,61,61,0,61,0.40,3.60,0.91,1.45
2014-09-20 17:50:00,2,13916,58,0.47,2,2,0,2,11988,15042,837,13914,51,61,5,61,0.05,1.05,0.34,0.45
2014-09-20 18:00:00,2,14180,53,0.01,2,2,0,2,13065,15096,608,14226,41,61,7,51,0.00,0.10,0.03,0.00
2014-09-20 18:10:00,2,14520,48,0.14,2,2,0,2,13386,15690,786,14350,41,61,9,41,0.00,0.75,0.22,0.08
2014-09-20 18:20:00,2,15789,51,0.17,2,2,0,2,13238,17608,1308,15914,51,51,0,51,0.00,0.55,0.15,0.10
2014-09-20 18:30:00,2,17151,26,0.00,2,2,0,2,15075,18701,1104,17216,0,51,21,41,0.00,0.00,0.00,0.00
2014-09-20 18:40:00,2,15268,0,0.00,2,2,0,2,13536,17799,1249,15220,0,0,0,0,0.00,0.00,0.00,0.00
2014-09-20 18:50:00,2,14294,0,0.00,2,2,0,2,13280,15146,614,14170,0,0,0,0,0.00,0.00,0.00,0.00
2014-09-20 19:00:00,2,15884,0,0.00,2,2,0,2,14730,16971,596,15781,0,0,0,0,0.00,0.00,0.00,0.00
2014-09-20 19:10:00,2,16290,33,0.00,2,2,0,2,14255,18601,1092,16200,0,41,16,41,0.00,0.00,0.00,0.00
2014-09-20 19:20:00,2,15015,47,0.07,2,2,0,2,13712,16889,801,14998,41,61,8,41,0.00,0.20,0.07,0.08
2014-09-20 19:30:00,2,14755,51,0.14,2,2,0,2,13437,17808,1228,14328,51,51,0,51,0.05,0.30,0.07,0.12
2014-09-20 19:40:00,2,15624,53,0.15,2,2,0,2,13695,17339,1189,15676,51,61,4,51,0.00,0.60,0.17,0.10
2014-09-20 19:50:00,2,15454,51,0.28,2,2,0,2,13904,16908,932,15526,51,52,0,51,0.00,0.90,0.30,0.15
2014-09-20 20:00:00,2,15242,20,0.02,2,2,0,2,13683,16757,971,15034,0,61,26,0,0.00,0.10,0.04,0.00
2014-09-20 20:10:00,2,15443,47,0.03,2,2,0,2,13881,16711,893,15373,41,61,8,41,0.00,0.10,0.03,0.03
2014-09-20 20:20:00,2,14788,29,0.01,2,2,0,2,13503,16188,684,14792,0,41,19,41,0.00,0.05,0.02,0.00
2014-09-20 20:30:00,2,18493,0,0.00,0,2,1,2,14796,21452,1843,18184,0,0,0,0,0.00,0.00,0.00,0.00
2014-09-20 20:40:00,0,16997,0,0.00,0,2,1,0,14469,18239,1095,17252,0,0,0,0,0.00,0.00,0.00,0.00
2014-09-20 20:50:00,0,17531,0,0.00,0,0,0,0,16351,18983,843,17328,0,0,0,0,0.00,0.00,0.00,0.00
2014-09-20 21:00:00,1,16283,0,0.00,0,2,1,0,13128,20899,2420,16009,0,0,0,0,0.00,0.00,0.00,0.00
2014-09-20 21:10:00,2,15687,28,0.02,2,2,0,2,14666,17224,841,15616,0,51,23,41,0.00,0.10,0.03,0.00
2014-09-20 21:20:00,2,17986,0,0.00,2,2,0,2,16162,21655,1449,17653,0,0,0,0,0.00,0.00,0.00,0.00
2014-09-20 21:30:00,2,21017,0,0.00,2,2,0,2,17530,23905,1892,20808,0,0,0,0,0.00,0.00,0.00,0.00
2014-09-20 21:40:00,2,20581,0,0.00,2,2,0,2,17315,22703,1915,21048,0,0,0,0,0.00,0.00,0.00,0.00
2014-09-20 21:50:00,2,20452,0,0.00,2,2,0,2,18723,22565,1009,20576,0,0,0,0,0.00,0.00,0.00,0.00
2014-09-20 22:00:00,1,19943,0,0.00,0,2,1,0,18247,21195,1018,20468,0,0,0,0,0.00,0.00,0.00,0.00
2014-09-20 22:10:00,0,18900,0,0.00,0,0,0,0,17676,21918,1225,18522,0,0,0,0,0.00,0.00,0.00,0.00
2014-09-20 22:20:00,0,18327,0,0.00,0,0,0,0,17108,20631,1192,17836,0,0,0,0,0.00,0.00,0.00,0.00
2014-09-20 22:30:00,0,18727,0,0.00,0,0,0,0,16631,22353,1968,18198,0,0,0,0,0.00,0.00,0.00,0.00
2014-09-20 22:40:00,2,18103,0,0.00,0,2,1,2,17289,19312,583,18132,0,0,0,0,0.00,0.00,0.00,0.00
2014-09-20 22:50:00,2,19951,0,0.00,2,2,0,2,17118,22908,1899,20516,0,0,0,0,0.00,0.00,0.00,0.00
2014-09-20 23:00:00,2,20778,0,0.00,2,2,0,2,18975,23229,1209,20932,0,0,0,0,0.00,0.00,0.00,0.00
2014-09-20 23:10:00,2,22066,0,0.00,2,2,0,2,19556,24751,1410,22038,0,0,0,0,0.00,0.00,0.00,0.00
2014-09-20 23:20:00,2,18368,0,0.00,2,2,0,2,17159,20436,847,18020,0,0,0,0,0.00,0.00,0.00,0.00
2014-09-20 23:30:00,2,19873,0,0.00,2,2,0,2,15675,23323,2220,20254,0,0,0,0,0.00,0.00,0.00,0.00
2014-09-20 23:40:00,2,19560,0,0.00,2,2,0,2,18260,20498,713,19704,0,0,0,0,0.00,0.00,0.00,0.00
2014-09-20 23:50:00,2,19271,0,0.00,2,2,0,2,17578,21773,1040,19286,0,0,0,0,0.00,0.00,0.00,0.00
